Weather in Soloni

Russia / Khabarovsk Krai     50°49′04″N   133°13′35″E
temp.,
°C
wind,
m/s
gust,
m/s
humid.,
%
clouds,
%
prec.,
mm/h
press.,
hPa
HPBL,
m
27 february, sat
sat2701:00−24nne119911 0.0 103420
04:00−25ne01996 0.0 103420
07:00−23se118749 0.0 103320
10:00−16se228147 0.0 1031103
13:00−10sse3672100 0.0 1027605
16:00−11sse4978100 0.1 1022598
19:00−13se31180100 0.0 1020564
22:00−14sse31193100 0.3 1018603
28 february, sun
sun2801:00−15se3694100 1.0 1015337
04:00−15sse2496100 1.8 1014204
07:00−16s2297100 0.4 101636
10:00−14wsw1294100 0.6 1016204
13:00−14wnw5883100 0.2 1018903
16:00−16wnw688295 0.2 1019965
19:00−22wnw4119388 0.0 1023428
22:00−25wnw3129989 0.1 1026470
1 march, mon
mon101:00−28nw2310099 0.1 102882
04:00−28nw2210099 0.1 103024
07:00−29nw12100100 0.1 103222
10:00−26wnw259199 0.1 1032440
13:00−23nw6117418 0.0 10311060
16:00−22wnw6107842 0.0 10301395
19:00−26wnw41188100 0.0 1032406
22:00−29nw279999 0.1 1034213
2 march, tue
tue201:00−31nw22100100 0.0 103425
04:00−33nnw11100100 0.0 103419
07:00−33se00100100 0.0 103519
10:00−26ssw119285 0.0 1034159
13:00−21wnw248396 0.0 1031888
16:00−20w248598 0.1 1028992
19:00−23sw0199100 0.1 102920
22:00−26sse229798 0.2 103021
3 march, wed
wed301:00−24se2298100 0.0 102846
04:00−23se2397100 0.2 102791
07:00−22se3697100 0.2 1024224
10:00−19sse4893100 0.4 1022510
13:00−15s41088100 0.2 1017774
16:00−14s4888100 0.3 1014869
19:00−18sse3595100 0.1 1014165
22:00−18se3696100 0.3 1014263